This demonstration page uses our WeatherBlox Daily Observations layout. Learn more.

Hourly Observations for October 10, 2016

Temp ( °F °C ) Dew Point ( °F °C ) Humidity (%) Winds ( mph kmh ) Pressure ( in mb ) Visibility ( mi km ) Precip ( " mm )
12:15 am 00:15 Clear 59 14.9 41 5.1 52 52 SSE 14 22 30.06 1018 10 16.09344 0 0
12:35 am 00:35 Clear 59 14.8 42 5.3 53 53 SSE 15 24 30.06 1018 10 16.09344 0 0
12:55 am 00:55 Clear 58 14.7 42 5.6 55 55 SSE 17 28 30.06 1018 10 16.09344 0 0
1:15 am 01:15 Clear 58 14.5 43 5.9 57 57 SSE 13 20 30.06 1018 10 16.09344 0 0
1:35 am 01:35 Clear 58 14.3 43 6.1 58 58 SSE 14 22 30.03 1017 10 16.09344 0 0
1:55 am 01:55 Clear 58 14.3 44 6.4 59 59 S 15 24 30.03 1017 10 16.09344 0 0
2:15 am 02:15 Clear 57 14.1 44 6.7 61 61 SSE 10 17 30.03 1017 10 16.09344 0 0
2:35 am 02:35 Clear 57 14 45 7 63 63 S 10 17 30.03 1017 10 16.09344 0 0
2:55 am 02:55 Clear 57 13.7 45 7.1 65 65 S 8 13 30.03 1017 10 16.09344 0 0
3:15 am 03:15 Clear 56 13.5 45 7.3 66 66 S 9 15 30.03 1017 10 16.09344 0 0
3:35 am 03:35 Clear 56 13.3 46 7.5 68 68 S 10 17 30.03 1017 10 16.09344 0 0
3:55 am 03:55 Clear 55 13 46 7.6 70 70 S 10 17 30.06 1018 10 16.09344 0 0
4:15 am 04:15 Mostly Cloudy 55 13 46 8 72 72 S 9 15 30.06 1018 10 16.09344 0 0
4:35 am 04:35 Mostly Cloudy 55 13 47 8.1 72 72 S 10 17 30.06 1018 10 16.09344 0 0
4:55 am 04:55 Clear 55 13 47 8.2 73 73 S 8 13 30.06 1018 10 16.09344 0 0
5:15 am 05:15 Partly Cloudy 56 13.1 47 8.5 74 74 S 9 15 30 1016 10 16.09344 0 0
5:35 am 05:35 Partly Cloudy 56 13.6 48 9 74 74 S 10 17 30 1016 10 16.09344 0 0
5:55 am 05:55 Partly Cloudy 56 13.6 48 9.1 74 74 S 12 19 30 1016 10 16.09344 0 0
6:15 am 06:15 Clear 56 13.2 48 9 76 76 SSE 12 19 30 1016 10 16.09344 0 0
6:35 am 06:35 Partly Cloudy 55 12.8 48 9 78 78 SSE 9 15 30.03 1017 10 16.09344 0 0
6:55 am 06:55 Partly Cloudy 55 12.7 48 9.1 79 79 SSE 9 15 30.03 1017 10 16.09344 0 0
7:15 am 07:15 Partly Cloudy 54 12.2 48 9 81 81 SSE 10 17 30.03 1017 10 16.09344 0 0
7:35 am 07:35 Clear 54 12 48 8.7 80 80 SSE 10 17 30.03 1017 10 16.09344 0 0
7:55 am 07:55 Sunny 54 12.1 48 8.7 80 80 SSE 9 15 30.03 1017 10 16.09344 0 0
8:15 am 08:15 Sunny 54 12.2 48 8.7 79 79 SSE 10 17 30.03 1017 10 16.09344 0 0
8:35 am 08:35 Sunny 55 12.8 48 9.1 78 78 SSE 14 22 30.03 1017 10 16.09344 0 0
8:55 am 08:55 Sunny 56 13.6 48 9.1 74 74 S 17 28 30 1016 10 16.09344 0 0
9:15 am 09:15 Sunny 58 14.2 48 8.8 70 70 S 17 28 30 1016 10 16.09344 0 0
9:35 am 09:35 Sunny 58 14.6 48 8.8 68 68 S 20 31 30 1016 10 16.09344 0 0
9:55 am 09:55 Partly Cloudy 57 14 48 8.8 71 71 S 17 28 30 1016 10 16.09344 0 0
10:15 am 10:15 Partly Cloudy 58 14.6 49 9.4 71 71 S 18 30 30 1016 10 16.09344 0 0
10:35 am 10:35 Sunny 60 15.5 50 9.8 69 69 S 20 31 30 1016 10 16.09344 0 0
10:55 am 10:55 Partly Cloudy 61 16.2 50 10 67 67 S 21 33 30 1016 10 16.09344 0 0
11:15 am 11:15 Partly Cloudy 62 16.5 51 10.3 67 67 S 21 33 29.97 1015 10 16.09344 0 0
11:35 am 11:35 Sunny 63 17 51 10.5 66 66 S 16 26 29.97 1015 10 16.09344 0 0
11:55 am 11:55 Sunny 63 17.2 51 10.6 65 65 S 17 28 29.94 1014 10 16.09344 0 0
12:15 pm 12:15 Partly Cloudy 64 17.6 51 10.8 65 65 S 16 26 29.94 1014 10 16.09344 0 0
12:35 pm 12:35 Partly Cloudy 65 18.5 52 10.9 61 61 S 17 28 29.94 1014 10 16.09344 0 0
12:55 pm 12:55 Sunny 67 19.7 52 11 57 57 S 18 30 29.91 1013 10 16.09344 0 0
1:15 pm 13:15 Sunny 68 20.1 51 10.8 55 55 S 16 26 29.91 1013 10 16.09344 0 0
1:35 pm 13:35 Sunny 69 20.5 51 10.7 54 54 SSE 16 26 29.91 1013 10 16.09344 0 0
1:55 pm 13:55 Sunny 68 20 52 10.9 56 56 S 16 26 29.88 1012 10 16.09344 0 0
2:15 pm 14:15 Sunny 69 20.4 52 11 55 55 S 15 24 29.88 1012 10 16.09344 0 0
2:35 pm 14:35 Sunny 68 20 52 10.9 56 56 S 14 22 29.88 1012 10 16.09344 0 0
2:55 pm 14:55 Sunny 71 21.8 52 11 50 50 SSE 14 22 29.88 1012 10 16.09344 0 0
3:15 pm 15:15 Sunny 71 21.8 52 11.1 51 51 S 13 20 29.85 1011 10 16.09344 0 0
3:35 pm 15:35 Sunny 72 22.1 53 11.4 51 51 S 13 20 29.85 1011 10 16.09344 0 0
3:55 pm 15:55 Sunny 72 22.2 52 11.2 50 50 S 15 24 29.85 1011 10 16.09344 0 0
4:15 pm 16:15 Sunny 72 22.2 52 11.3 50 50 S 17 28 29.85 1011 10 16.09344 0 0
4:35 pm 16:35 Sunny 72 22.3 53 11.6 51 51 S 14 22 29.85 1011 10 16.09344 0 0
4:55 pm 16:55 Sunny 72 22.2 53 11.4 51 51 S 16 26 29.85 1011 10 16.09344 0 0
5:15 pm 17:15 Sunny 73 22.5 52 11 48 48 S 12 19 29.83 1010 10 16.09344 0 0
5:35 pm 17:35 Sunny 73 22.5 52 11 48 48 S 15 24 29.83 1010 10 16.09344 0 0
5:55 pm 17:55 Sunny 73 22.7 52 11 48 48 S 14 22 29.83 1010 10 16.09344 0 0
6:15 pm 18:15 Sunny 73 22.5 52 11.1 49 49 S 10 17 29.83 1010 10 16.09344 0 0
6:35 pm 18:35 Sunny 72 22.2 52 11.2 50 50 S 12 19 29.85 1011 10 16.09344 0 0
6:55 pm 18:55 Sunny 71 21.5 52 11.2 52 52 S 9 15 29.85 1011 10 16.09344 0 0
7:15 pm 19:15 Clear 69 20.3 52 11.1 56 56 SSE 8 13 29.85 1011 10 16.09344 0 0
7:35 pm 19:35 Clear 66 19.1 52 11.2 60 60 SSE 9 15 29.85 1011 10 16.09344 0 0
7:55 pm 19:55 Clear 67 19.3 52 11.3 60 60 SSE 12 19 29.85 1011 10 16.09344 0 0
8:15 pm 20:15 Clear 65 18.2 52 11.1 63 63 SSE 8 13 29.88 1012 10 16.09344 0 0
8:35 pm 20:35 Clear 63 17.1 52 11.1 68 68 SSE 10 17 29.88 1012 10 16.09344 0 0
8:55 pm 20:55 Clear 63 17 52 11.1 68 68 SSE 10 17 29.88 1012 10 16.09344 0 0
9:15 pm 21:15 Clear 62 16.5 52 11 70 70 SSE 8 13 29.88 1012 10 16.09344 0 0
9:35 pm 21:35 Clear 62 16.5 52 10.9 70 70 SSE 8 13 29.88 1012 10 16.09344 0 0
9:55 pm 21:55 Clear 62 16.5 51 10.8 69 69 SSE 9 15 29.88 1012 10 16.09344 0 0
10:15 pm 22:15 Clear 61 16 51 10.6 71 71 SSE 9 15 29.88 1012 10 16.09344 0 0
10:35 pm 22:35 Clear 61 16 51 10.6 71 71 S 10 17 29.88 1012 10 16.09344 0 0
10:55 pm 22:55 Clear 60 15.4 51 10.5 73 73 S 8 13 29.88 1012 10 16.09344 0 0
11:15 pm 23:15 Clear 59 15 51 10.5 75 75 S 8 13 29.91 1013 10 16.09344 0 0
11:35 pm 23:35 Clear 58 14.5 51 10.4 77 77 S 9 15 29.91 1013 10 16.09344 0 0
11:55 pm 23:55 Clear 58 14.2 51 10.3 78 78 S 7 11 29.91 1013 10 16.09344 0 0

Powered by AerisWeather